Simultaneous Nadir Overpasses (SNOs) Predictions

Prediction of SNOs between NPP and TERRA Satellite Orbit:

Table of predicted SNOs for the next 14.0 days since TLE Epoch: 3/5/2022
Index Date (NPP) Time (NPP) Lat,Lon (NPP) SZA (NPP ) Date (TERRA) Time (TERRA) Lat,Lon (TERRA) SZA (TERRA ) Distance(km) Time Diff (sec)
1 03/05/2022 12:27:57 70.35, -10.97 76.33 03/05/2022 12:29:03 70.26, -8.34 76.14 98.98 66
2 03/05/2022 13:18:20 -69.25, 157.97 104.84 03/05/2022 13:18:49 -69.26, 157.93 104.84 2.02 29
3 03/05/2022 14:09:04 69.13, -34.55 75.02 03/05/2022 14:08:16 69.15, -34.57 75.05 2.60 48
4 03/08/2022 04:44:34 69.37, 106.26 74.25 03/08/2022 04:45:44 69.39, 106.33 74.25 3.24 70
5 03/08/2022 05:35:15 -69.23, -86.22 105.92 03/08/2022 05:35:15 -69.22, -86.26 105.93 1.88 0
6 03/08/2022 06:25:56 68.95, 81.48 73.78 03/08/2022 06:24:44 68.99, 81.10 73.85 15.86 72
7 03/10/2022 21:01:27 69.29,-137.86 73.12 03/10/2022 21:02:09 69.32,-137.87 73.14 3.48 42
8 03/10/2022 21:52:09 -69.20, 29.58 107.00 03/10/2022 21:51:39 -69.21, 29.62 106.98 1.82 30
9 03/13/2022 12:27:49 -69.97, 169.61 107.22 03/13/2022 12:28:59 -69.86, 171.08 107.39 57.56 70
10 03/13/2022 13:18:22 69.28, -22.07 72.04 03/13/2022 13:18:35 69.25, -22.09 72.01 3.11 13
11 03/13/2022 14:09:03 -69.13, 145.45 108.13 03/13/2022 14:08:05 -69.14, 145.40 108.11 2.53 58
12 03/16/2022 04:44:32 -69.32, -73.67 108.97 03/16/2022 04:45:33 -69.34, -73.75 108.96 3.38 61
13 03/16/2022 05:35:16 69.21, 93.79 70.91 03/16/2022 05:35:00 69.22, 93.74 70.92 2.20 16
14 03/16/2022 06:25:48 -68.58, -98.03 109.76 03/16/2022 06:24:38 -68.67, -99.32 109.63 52.88 70
15 03/18/2022 21:01:27 -69.31, 42.11 110.04 03/18/2022 21:01:58 -69.29, 42.08 110.06 2.43 31
16 03/18/2022 21:52:11 69.20,-150.42 69.83 03/18/2022 21:51:25 69.17,-150.44 69.81 3.37 46



Historial Predications of SNOs between NPP and TERRA
